星链-5391 (STARLINK-5391 )

导读 | 豆包AI

STARLINK-5391是美国太空探索技术公司SpaceX星链星座的成员卫星,于2022年12月28日发射入轨,隶属于星链互联网卫星星座组网。星链项目旨在通过近地轨道卫星群搭建全球卫星互联网,该卫星承担为全球偏远地区、海洋空域等提供低延迟宽带互联网接入的任务,是星链大规模组网进程中的一颗在轨工作卫星。

Basic Information
目录编号:
54833
目录名称:
STARLINK-5391
国际标识:
2022-177P
轨道中心:
EARTH
卫星名称:
星链-5391
卫星全名:
星链-5391 (STARLINK-5391 )
卫星状态:
已陨落 最后检测时间 2026-02-19
发射日期:
2022-12-28 UTC
国别 :
美国 (US)
星等 :
--
Orbit Information
数据来源 国际轨道数据
星历时间: 2026-02-19T21:44:45+0800
轨道信息已过期70天
半长轴: 6551.592km
偏心率: 0.0003625
轨道倾角: 42.984°
近地点辐角 292.301°
升交点赤经 196.610°
平近点角 67.749°
近地点: 171.08km
远地点: 175.83km
周期: 87.959分钟
每日圈数: 16.371278
Detailed Information
固有亮度:
5
最大亮度:
2.5
卫星平台:
Starlink v1.5
覆盖范围:
全球
运营商:
太空探索技术公司
运营商所在国:
美国
制造商(研发单位):
太空探索技术公司
制造商所在国:
美国
使用方式:
暂无
Satellite Introduction
星链(Starlink)计划是由太空探索技术公司(SpaceX)提出的一个巨型低轨卫星互联网星座项目,计划在2019年至2024年间在太空搭建由约1.2万颗卫星组成的“星链”网络,其中1584颗将部署在地球上空550千米处的近地轨道,并从2020年开始工作。该卫星仍在工作。